マクノート彗星

C/2011 G1 ( McNaught )

English version
Home page
Updated on February 21, 2012

---------------------------------------------------------------------

・ プロフィール

発見日 2011年4月5日
発見光度 17.3等
発見者 R. H. McNaught (Siding Spring)

・ 写真集

・ 軌道要素

Epoch 2011 Oct. 6.0 TT = JDT 2455840.5
T 2011 Sept. 16.41367 TT                                MPC
q   2.1551386            (2000.0)            P               Q
z  -0.0004794      Peri.  354.55080     -0.92536333     +0.35209746
 +/-0.0000009      Node   152.59125     +0.35830900     +0.69142237
e   1.0010333      Incl.  162.23379     +0.12376337     +0.63084268
From 309 observations 2011 Apr. 5-2012 Jan. 26, mean residual 0".6.

・ 星図

・ 光度変化

        m1 = 12.0 + 5 logΔ + 10.0 log r

---------------------------------------------------------------------

軌道要素はM.P.E.C. 2012-B78に掲載されたものです。
星図はステラナビゲータ Ver.8 (アストロアーツ) で作成したものです。
光度グラフはComet for Windowsで作成したものです。

---------------------------------------------------------------------

Copyright(C) Seiichi Yoshida (comet@aerith.net). All rights reserved.